This is the latest recevied weather packets stored in our database for station/object KO6HRZ. If no packets are shown the sender has not sent any weather packets the latest 10 day(s).
| Time | Temp. | Humidity | Pressure | Rain* | Wind** | Luminosity | Snow |
|---|---|---|---|---|---|---|---|
| 1777495895 | 27.78° C | 42% | 1016.9 hPa | 0 mm | - | 846 W/m² | - |
| 1777495293 | 27.22° C | 40% | 1017 hPa | 0 mm | - | 853 W/m² | - |
| 1777494688 | 27.22° C | 43% | 1017.2 hPa | 0 mm | - | 853 W/m² | - |
| 1777494087 | 27.78° C | 43% | 1017.1 hPa | 0 mm | - | 855 W/m² | - |
| 1777493483 | 26.67° C | 45% | 1017.3 hPa | 0 mm | - | 855 W/m² | - |
| 1777492882 | 25.56° C | 46% | 1017.6 hPa | 0 mm | - | 854 W/m² | - |
| 1777492280 | 26.67° C | 46% | 1017.7 hPa | 0 mm | - | 851 W/m² | - |
| 1777491680 | 26.11° C | 45% | 1017.5 hPa | 0 mm | - | 844 W/m² | - |
| 1777491080 | 26.11° C | 48% | 1017.8 hPa | 0 mm | - | 833 W/m² | - |
| 1777490478 | 25.56° C | 46% | 1017.7 hPa | 0 mm | - | 823 W/m² | - |
| 1777489878 | 26.11° C | 46% | 1018.1 hPa | 0 mm | - | 813 W/m² | - |
| 1777489277 | 25.56° C | 47% | 1018.2 hPa | 0 mm | - | 801 W/m² | - |
| 1777488678 | 25.56° C | 49% | 1018.3 hPa | 0 mm | - | 793 W/m² | - |
| 1777488074 | 25.56° C | 49% | 1018.3 hPa | 0 mm | - | 774 W/m² | - |
| 1777487469 | 25.56° C | 50% | 1018.4 hPa | 0 mm | - | 755 W/m² | - |
| 1777486867 | 25.56° C | 49% | 1018.5 hPa | 0 mm | - | 735 W/m² | - |
| 1777486268 | 24.44° C | 52% | 1018.5 hPa | 0 mm | - | 709 W/m² | - |
| 1777485667 | 23.33° C | 53% | 1018.6 hPa | 0 mm | - | 687 W/m² | - |
| 1777485065 | 23.89° C | 55% | 1018.6 hPa | 0 mm | - | 661 W/m² | - |
| 1777484464 | 23.33° C | 54% | 1018.6 hPa | 0 mm | - | 636 W/m² | - |
| 1777483863 | 22.78° C | 56% | 1018.8 hPa | 0 mm | - | 608 W/m² | - |
| 1777483260 | 22.78° C | 55% | 1018.8 hPa | 0 mm | - | 582 W/m² | - |
| 1777482658 | 20.56° C | 61% | 1018.9 hPa | 0 mm | - | 552 W/m² | - |
| 1777482058 | 20.56° C | 61% | 1018.8 hPa | 0 mm | - | 529 W/m² | - |
| 1777481453 | 21.11° C | 62% | 1018.9 hPa | 0 mm | - | 498 W/m² | - |
* Rain latest hour (hover to see other rain measurements)
** Current wind speed in m/s (hover to see current wind gust speed)